Location: Arran
(51.9410°N, 101.7372°W)
Time: 08:03:32
(UTC+00:00)

SWISSCUBE - Pass Details

Date: 17 May 2025
Orbit: 685 x 693 km, 98.4° (Epoch: 20 June)

Event Time Altitude Azimuth Distance (km) Brightness Sun altitude
Rises 07:12:58 0° 6° (N) 3,076 ? -18.4°
Reaches altitude 10° 07:15:36 10° 352° (N) 2,156 ? -18.3°
Maximum altitude 07:19:14 23° 302° (WNW) 1,476 ? -18.2°
Enters shadow 07:22:44 11° 252° (WSW) 2,113 ? -18.1°
